User: anonymous   Login
Location: Unspecified
(35.7250°N, 0.0000°E)
Time: 11:02:21
(UTC+00:00)
Language:

Transit 4A - Orbit

View from above orbital plane
View from above orbital plane
View from above satellite
View from above satellite

Ground track
Ground track

The orbit data is extracted from the following two-line orbital elements,

1   116U 61015A   20218.05089539 -.00000057  00000-0  15194-4 0  9990
2   116  66.8099  89.4184 0078795 330.1949  29.4653 13.91773359999067
Epoch (UTC): 05 August 2020 01:13:17
Eccentricity: 0.0078795
inclination: 66.8099°
perigee height: 865 km
apogee height: 980 km
right ascension of ascending node: 89.4184°
argument of perigee: 330.1949°
revolutions per day: 13.91773359
mean anomaly at epoch: 29.4653°
orbit number at epoch: 99906

The dashed part of the orbit path shows where the satellite is in the earth's shadow,  

DLR